Weather Roundup
Issued by NWS Corpus Christi, TX

Home | Current Version | Previous Version | Text Only | Print | Product List | Glossary Off
Versions: 1 2 3 4 5 6 7 8 9 10 11 12 13 14 15 16 17 18 19 20 21 22 23 24 25 26 27 28 29 30 31 32 33 34 35 36 37 38 39 40 41 42 43 44 45 46 47 48 49 50

000
ASUS44 KCRP 281910
HRRCRP

SOUTH TEXAS REGIONAL WEATHER ROUNDUP
NATIONAL WEATHER SERVICE CORPUS CHRISTI TX
200 PM CDT FRI JUL 28 2017


TXZ229>244-282000-
...CORPUS CHRISTI AREA OBSERVATIONS...

CITY           SKY/WX    TMP DP  RH WIND       PRES   REMARKS
CORPUS CHRISTI PTSUNNY   94  74  52 SE16G23   29.92F HX 104
NAS CORPUS CHR MOSUNNY   91  76  61 SE15      29.94F HX 103
ROCKPORT       SUNNY     91  74  57 S13       29.94F HX 100
KINGSVILLE NAS PTSUNNY   99  70  38 SE10G16   29.91F HX 106
ALICE          SUNNY     99  64  31 S9G18     29.91F HX 101
FALFURRIAS     SUNNY     98  64  32 SE10      29.91F HX 100
$$

...VICTORIA AREA OBSERVATIONS...

CITY           SKY/WX    TMP DP  RH WIND       PRES   REMARKS
VICTORIA       MOSUNNY   98  68  37 VRB7      29.93F HX 103
BEEVILLE       FAIR      98  64  32 S6        29.93F HX 100
PLEASANTON     SUNNY     99  60  27 SE12G17   29.93F HX  99
SAN ANTONIO    PTSUNNY   95  63  34 VRB5      29.95F HX  96
$$

...LAREDO AREA OBSERVATIONS...

CITY           SKY/WX    TMP DP  RH WIND       PRES   REMARKS
LAREDO         SUNNY    100  67  33 SE16G22   29.90F HX 105
COTULLA        SUNNY     99  58  25 SE14G20   29.91F HX  98
DEL RIO        SUNNY     96  63  33 SE10      29.91F HX  97
MCALLEN        SUNNY    101  68  34 SE16G25   29.90F HX 106
HEBBRONVILLE   SUNNY     98  58  26 SE15      29.93F HX  97
$$

...OTHER TEXAS OBSERVATIONS...

CITY           SKY/WX    TMP DP  RH WIND       PRES   REMARKS
BROWNSVILLE    SUNNY     95  74  50 S14G22    29.92F HX 105
HOUSTON        MOSUNNY   95  73  48 SW9       29.93F HX 104
COL. STATION   SUNNY     97  67  37 SE6       29.93F HX 101
AUSTIN         MOSUNNY   98  63  31 S14G20    29.93F HX 100
WACO           SUNNY    100  61  27 S12       29.92F HX 101
FORT WORTH     PTSUNNY   99  69  37 SW8       29.89F HX 105
WICHITA FALLS  MOSUNNY   99  68  36 N13       29.91F HX 104
LUBBOCK        MOSUNNY   94  56  27 S13       30.05F HX  92
EL PASO        FAIR      88  62  41 VRB3      30.07F
$$

...MARINE OBSERVATIONS...

STATION/POSITION TIME  SKY/WX   TEMP    WIND        PRES    VSBY  WAVE   SWELL
                                AIR SEA DIR/SP/G                  HT/PER HT/PER
                 (UTC)          (F)     (DEG/KT/KT) (MB)    (MI)  (FT/S) (FT/S)
PORT ARANSAS     1900            84 87  140/  7/  9 1014.2F
BUOY 90 E PORT A 1750            85 87  200/  6/  6 1015.2          2/ 4   2/ 5
BUOY 45 SE BAFFI 1750            84     170/  6/  8 1014.0          2/ 6   2/ 6
BUOY 200 E PT IS 1750            85 89  110/  4/  4 1016.1          2/ 6   2/ 6
BUOY 15 E GALVES 1750            85 87  240/  8/ 10 1015.0          2/ 4   2/ 6
$$




USA.gov is the U.S. government's official web portal to all federal, state and local government web resources and services.